User: anonymous   Login
Location: downtown San Diego
(32.7310°N, 117.1990°W)
Time: 23:34:26
(UTC-07:00)
Language:

OAO 1 Rocket - Orbit

View from above orbital plane
View from above orbital plane
View from above satellite
View from above satellite

Ground track
Ground track

The orbit data is extracted from the following two-line orbital elements,

1  2144U 66031B   20225.56682739 +.00000044 +00000-0 +18775-4 0  9994
2  2144 035.0429 298.8692 0009008 307.4315 052.5555 14.42762690854195
Epoch (UTC): 12 August 2020 13:36:13
Eccentricity: 0.0009008
inclination: 35.0429°
perigee height: 743 km
apogee height: 756 km
right ascension of ascending node: 298.8692°
argument of perigee: 307.4315°
revolutions per day: 14.42762690
mean anomaly at epoch: 52.5555°
orbit number at epoch: 85419

The dashed part of the orbit path shows where the satellite is in the earth's shadow,  

DLR